haerbin , China , ASIA

  • Monday
    August 19

      Cloudy

      55 °F

      Northeast

       

  • Tuesday
    August 20

    Cloudy  Moderate rain

    73 °F  64 °F

    Southeast  Southeast

       3~4L 

  • Wednesday
    August 21

    Moderate rain  Moderate rain

    72 °F  63 °F

    Southeast  South

    4~5L   3~4L 

  • Thursday
    August 22

    Moderate rain  Light rain

    70 °F  63 °F

    Southwest  Northwest

    4~5L   3~4L 

  • Friday
    August 23

    Cloudy  Cloudy

    70 °F  61 °F

    Northeast  Northeast

    3~4L    

  • Saturday
    August 24

    Cloudy  Cloudy

    72 °F  61 °F

    Northeast  Northeast

    3~4L    

  • Sunday
    August 25

    Cloudy  Sunny

    73 °F  63 °F

    Northeast  No wind

        

Date   Weather Temperature Humidity Total_rain Visibility Wind
23:00 Cloudy 56°F 93.9% 0mm 999.9km Northwest  0.2m/s
02:00 Cloudy 56°F 94.6% 0mm 999.9km Northwest  0.7m/s
05:00 Cloudy 58°F 95% 0mm 999.9km Northeast  0.8m/s
08:00 Cloudy 65°F 89.1% 0mm 999.9km Southeast  1.2m/s
11:00 Cloudy 71°F 76% 0mm 999.9km Southeast  1.1m/s
14:00 Cloudy 73°F 74% 0mm 999.9km Southeast  1.8m/s
17:00 Cloudy 71°F 82% 0mm 999.9km Southeast  1.7m/s
20:00 Cloudy 66°F 69.6% 0mm 999.9km Southeast  0.9m/s
23:00 Light rain 67°F 93.5% 1mm 999.9km Southeast  1.5m/s
02:00 Light rain 65°F 95.6% 2mm 999.9km Southeast  2.2m/s
05:00 Light rain 65°F 96.2% 2.2mm 999.9km Southeast  2.8m/s
08:00 Moderate rain 65°F 96.1% 4.8mm 999.9km Southeast  4.4m/s
11:00 Moderate rain 70°F 92.6% 4.9mm 999.9km Southeast  4.7m/s
14:00 Light rain 71°F 89.1% 0.5mm 999.9km Southeast  4.9m/s
17:00 Light rain 70°F 85.5% 1.8mm 999.9km Southeast  4.6m/s
20:00 Moderate rain 67°F 83.3% 7.6mm 999.9km Southwest  2.9m/s
23:00 Light rain 66°F 96.8% 2.3mm 999.9km South  3.3m/s
02:00 Light rain 63°F 96.8% 1.9mm 999.9km Southeast  3.3m/s
05:00 Moderate rain 65°F 96.8% 4.2mm 999.9km Southeast  2.8m/s
08:00 Light rain 67°F 97% 1.6mm 999.9km Southwest  3.0m/s
11:00 Light rain 68°F 96.7% 2.4mm 999.9km Southwest  3.3m/s
14:00 Light rain 69°F 94.6% 2.4mm 999.9km Southwest  3.8m/s
17:00 Light rain 65°F 94.4% 2.4mm 999.9km Southeast  2.5m/s
20:00 Light rain 63°F 89.8% 2.7mm 999.9km Southeast  1.1m/s
23:00 Cloudy 65°F 98% 0mm 999.9km Northeast  2.1m/s
02:00 Cloudy 64°F 97.5% 0mm 999.9km Northeast  1.4m/s
05:00 Overcast 63°F 97.3% 0mm 999.9km Northeast  2.1m/s
08:00 Light rain 66°F 95.9% 0.1mm 999.9km Northeast  2.4m/s
11:00 Cloudy 67°F 91.4% 0mm 999.9km Northeast  2.8m/s
14:00 Cloudy 69°F 91.8% 0mm 999.9km Northeast  3.3m/s
17:00 Cloudy 69°F 87.4% 0mm 999.9km Northeast  2.3m/s
20:00 Cloudy 65°F 84.9% 0mm 999.9km Northeast  1.8m/s
23:00 Cloudy 63°F 97.4% 0mm 999.9km Northeast  2.1m/s
02:00 Cloudy 62°F 97.4% 0mm 999.9km Northeast  2.1m/s
05:00 Cloudy 61°F 97.9% 0mm 999.9km Northeast  2.3m/s
08:00 Cloudy 67°F 92.7% 0mm 999.9km Northeast  2.7m/s
11:00 Cloudy 71°F 92.6% 0mm 999.9km Northwest  2.9m/s
14:00 Cloudy 71°F 89% 0mm 999.9km Northeast  3.2m/s
17:00 Cloudy 69°F 93.1% 0mm 999.9km Northeast  2.8m/s
20:00 Cloudy 66°F 84% 0mm 999.9km Northeast  1.9m/s
23:00 Cloudy 62°F 96.6% 0mm 999.9km Southeast  2.2m/s
02:00 Cloudy 62°F 94.4% 0mm 999.9km Northeast  2.0m/s
05:00 Cloudy 61°F 92.8% 0mm 999.9km Northeast  2.0m/s
08:00 Cloudy 66°F 91.1% 0mm 999.9km Northeast  3.2m/s
11:00 Cloudy 70°F 83.1% 0mm 999.9km Southeast  2.4m/s
14:00 Cloudy 73°F 77.4% 0mm 999.9km Northeast  3.3m/s
17:00 Cloudy 72°F 75.3% 0mm 999.9km Northeast  2.5m/s
20:00 Cloudy 67°F 73.2% 0mm 999.9km Northeast  1.6m/s
23:00 Sunny 64°F 93.1% 0mm 999.9km Northeast  2.2m/s
02:00 Sunny 63°F 89.2% 0mm 999.9km Southeast  2.0m/s
05:00 Sunny 63°F 86.7% 0mm 999.9km Southeast  1.4m/s